Powrót do katalogu

CZ-4 DEB

AktywnyPO
NORAD 26128·DEBRIS·🇨🇳 China

Wystrzelony Oct 14, 1999 z Taiyuan Satellite Launch Center

Loading…

Następne Przeloty (najbliższe 24 godziny)

TLE

ŚwieżeSource: Space-Track

Epoka: Sep 14, 2026, 13:22 UTC

1 26128U 99057Q   26257.55730316  .00005351  00000-0  33996-3 0  9998
2 26128  98.6654 115.6138 0020612  68.0808 315.4844 15.09200432429049

Śledź CZ-4 DEB w czasie rzeczywistym z AllMySat

Download on the App Store